Location: Le Rouget
(44.8538°N, 2.2328°E)
Time: 13:31:03
(UTC+00:00)

Cosmos 1953 Rocket - Pass Details

Date: 15 May 2026
Orbit: 596 x 628 km, 82.5° (Epoch: 11 June)

Event Time Altitude Azimuth Distance (km) Brightness Sun altitude
Rises 22:13:18 0° 348° (NNW) 2,877 8.4 -22.6°
Reaches altitude 10° 22:15:33 10° 346° (NNW) 1,963 7.2 -22.8°
Maximum altitude 22:19:51 67° 265° (W) 657 3.6 -23.1°
Enters shadow 22:20:13 63° 232° (SW) 675 3.6 -23.1°
